Temp
80 81 83 83 84 83 80 80 82 82 80 79 79 75 79 79 77 77 76 73 73 75
78 78 80 80 80 81 82 79 81 81 80 78 77 75 77 76 76 74 75 76 76 74
73 77 78 76 76 77 78 80 80 80 79 72 73 76 75 75 77 77 78 78 75 74
71 75 75 75 75 76 77 79 78 78 77 73 74 77 77 77 77 77 74 75 74 73
71 73 74 74 76 77 78 79 79 79 79 79 79 78 77 77 76 74 73 73 73 72
72 73 74 76 77 79 78 78 79 79 79 79 79 77 77 77 75 74 73 73 71 71
72 76 76 76 76 78 78 78 78 78 78 78 78 78 77 76 73 73 73 72 71 71
78 78 78 77 76 78 78 79 79 77 77 78 78 78 75 73 72 71 70 71 72 72
77 78 77 75 76 76 77 77 77 75 76 75 77 52 55 59 70 71 70 69 70 71
76 75 74 75 76 75 74 74 73 74 74 73 73 52 52 56 69 69 69 68 68 69
71 74 73 74 75 73 73 72 72 72 72 71 68 51 50 52 68 69 69 69 68 67
72 73 73 73 74 74 73 71 71 71 71 70 69 50 48 54 69 69 68 68 68 67
75 75 74 71 70 71 71 72 71 70 68 56 66 47 48 54 70 66 66 68 68 55
75 74 74 72 71 69 69 68 67 67 68 68 61 60 47 47 63 65 65 63 63 61
MSLP
1012.59 1013.20 1013.60 1013.85 1013.87 1014.34 1015.26 1015.20 1015.03 1015.26 1015.56 1015.72 1016.06 1016.31 1015.89 1016.05 1016.26 1016.19 1016.11 1016.32 1016.35 1016.27
1013.13 1013.10 1013.20 1013.80 1014.02 1014.30 1014.74 1015.43 1015.46 1015.31 1015.60 1015.80 1016.11 1016.13 1016.29 1016.03 1016.05 1016.12 1016.17 1016.18 1016.06 1016.35
1014.16 1013.39 1013.50 1014.07 1014.41 1014.63 1015.02 1015.35 1015.68 1015.51 1015.74 1015.99 1016.27 1016.45 1016.29 1016.04 1015.97 1015.86 1015.69 1015.78 1015.90 1016.06
1013.25 1013.57 1013.61 1014.05 1014.33 1014.76 1015.13 1015.23 1015.55 1015.66 1016.10 1016.13 1016.30 1016.40 1016.29 1016.11 1015.97 1015.84 1015.98 1016.07 1016.10 1016.10
1012.84 1013.18 1013.58 1013.94 1014.42 1014.91 1014.90 1014.97 1015.23 1015.44 1015.84 1015.86 1016.19 1016.09 1016.15 1016.06 1016.06 1016.04 1016.01 1016.04 1016.09 1015.97
1013.37 1013.46 1013.80 1014.04 1014.43 1014.92 1015.24 1015.13 1015.14 1015.51 1015.44 1015.70 1015.95 1015.97 1016.21 1016.12 1016.17 1016.28 1016.20 1016.13 1016.27 1016.08
1012.90 1013.17 1013.57 1014.16 1014.93 1015.30 1015.27 1015.47 1015.52 1015.57 1015.72 1015.88 1015.82 1016.06 1016.20 1016.25 1016.46 1016.40 1016.07 1016.06 1016.20 1016.11
1013.02 1013.32 1014.00 1014.68 1014.98 1015.18 1015.27 1015.46 1015.63 1015.89 1015.87 1015.76 1015.85 1015.93 1016.30 1016.53 1016.49 1016.27 1015.99 1015.93 1015.71 1015.54
1013.22 1013.92 1014.34 1014.63 1014.76 1015.17 1015.35 1015.71 1015.98 1015.85 1015.72 1015.82 1015.74 1016.38 1016.99 1017.05 1016.47 1015.93 1015.77 1015.49 1015.60 1015.36
1013.60 1014.41 1014.68 1014.76 1015.06 1015.39 1015.69 1015.85 1015.71 1015.63 1015.75 1015.80 1016.07 1017.03 1017.33 1017.19 1016.50 1015.88 1015.49 1015.26 1015.30 1015.19
1014.46 1014.24 1014.63 1014.90 1015.14 1015.68 1015.82 1015.77 1015.59 1015.47 1015.58 1015.82 1016.50 1017.25 1017.42 1017.03 1016.15 1015.53 1015.25 1015.10 1015.11 1015.35
1014.65 1014.34 1014.65 1014.86 1015.20 1015.52 1015.71 1015.83 1015.63 1015.57 1015.68 1015.92 1016.17 1016.98 1016.99 1016.50 1015.64 1014.89 1014.89 1014.71 1014.83 1015.14
1014.28 1014.46 1014.74 1015.31 1015.67 1015.78 1015.79 1015.45 1015.68 1015.77 1016.12 1016.57 1016.38 1016.97 1016.93 1016.54 1015.46 1014.82 1014.64 1014.31 1014.20 1014.73
1014.75 1014.87 1015.20 1015.43 1015.62 1015.81 1015.78 1015.99 1016.10 1016.13 1016.09 1015.94 1016.46 1016.81 1017.19 1017.14 1016.26 1015.41 1014.98 1014.81 1014.34 1014.72
Wind_Speed
8 6 6 8 6 5 4 5 5 6 5 5 6 5 5 5 4 3 2 5 3 4
3 5 4 5 2 3 5 4 5 6 5 5 5 3 5 3 3 2 3 2 2 5
14 5 5 5 5 6 4 5 6 6 5 3 4 4 3 4 2 3 4 4 4 6
12 5 5 6 8 6 7 6 5 7 7 5 5 3 1 2 2 2 3 4 4 6
6 8 7 6 7 7 8 8 9 9 7 5 3 2 1 2 4 4 4 4 5 7
9 8 9 9 8 9 9 10 9 7 5 3 2 3 1 2 4 5 5 6 8 9
10 10 10 10 10 10 9 8 6 4 4 3 3 2 1 2 5 6 6 6 7 9
9 10 11 11 10 9 8 6 5 5 4 2 1 2 3 5 7 8 8 8 9 10
10 9 9 9 9 8 7 6 6 5 3 3 4 8 4 5 8 7 9 9 10 9
8 6 6 7 7 7 5 5 5 4 5 5 2 6 2 6 9 8 9 9 8 7
4 7 6 2 4 4 4 4 4 4 4 5 5 5 4 8 10 8 6 7 6 6
5 5 3 6 5 2 3 4 4 4 4 4 3 4 2 8 8 7 8 7 8 5
5 3 2 3 1 1 4 4 6 5 4 2 5 6 5 7 8 8 7 9 4 11
4 3 2 2 3 3 4 4 4 5 5 4 5 6 5 7 9 9 9 9 6 4
Wind_Direction
191 214 229 237 237 237 238 229 201 197 201 204 217 226 211 207 223 194 194 240 240 275
252 216 227 265 207 200 211 174 197 183 198 210 207 198 190 174 188 130 204 238 260 271
291 242 224 142 186 197 176 196 196 185 168 145 177 178 202 206 147 308 316 307 342 303
243 228 152 177 173 172 174 180 181 150 161 167 145 140 89 13 332 331 349 334 309 311
175 178 163 146 154 171 175 154 147 148 154 144 128 99 30 359 22 358 337 321 310 306
162 154 149 152 152 153 151 147 148 152 147 137 128 141 132 8 348 318 303 304 300 301
156 150 144 146 154 159 152 149 148 132 124 154 147 169 261 288 284 289 288 293 293 294
136 144 153 161 159 155 156 158 161 173 174 175 174 228 285 300 293 291 300 293 290 289
146 152 163 151 150 163 164 177 200 205 241 240 272 78 52 311 292 293 290 296 303 301
125 141 159 155 166 176 184 197 213 237 262 270 225 101 214 252 286 300 307 298 305 302
100 110 144 164 194 198 217 238 246 262 284 281 108 136 237 257 274 298 313 302 300 305
170 140 120 219 191 264 306 312 304 297 285 294 124 129 290 311 307 313 303 299 302 326
138 152 109 78 156 340 310 295 318 339 6 95 328 99 25 346 305 314 309 298 315 179
112 94 60 37 33 13 27 12 360 329 317 290 43 65 41 356 314 338 333 322 326 60